COSMOS 1275 DEB

Satellite information

Favourite Embed

Satellite Type and Status

DEBRISIN ORBIT

Key statistics

Satellite COSMOS 1275 DEB at a glance.

Uptime

16167

Days in orbit

Revolutions

≈ 13.8

Per day

Orbit

LEO

Low Earth Orbit

Inclination

82.9

Latest

Satellite identification and parameters

Extended collection of information and parameters for COSMOS 1275 DEB.

Object identification

Identified? True

Debris? True

Object name: COSMOS 1275 DEB

International designator: 1981-053EK

Object number (NORAD): 12964

Object ID (CCSDS): 12964

Country: COMMONWEALTH OF INDEPENDENT STATES (CIS)

Current information (Y/N): Y

RCS size: SMALL

Orbital parameters

Period: 104.325 minutes

Inclination: 82.9487 deg

SMA: 7340.973 km

Apoapsis: 990.83 km

Periapsis: 934.845 km

RAAN: 326.8677 deg

Eccentricy: 0.00381318

Argument of periapsis: 207.8311 deg

Mean anomaly: 326.1111 deg

Mean motion: 13.80296343 rev/day

Mean motion (dot): 0.00000059 rev/day2

B* drag term: 0.000041688027 1/REarth

Two-line elements (TLE)

Creation date: Sept. 8, 2025, 3:16 a.m.

Reference frame: TEME

Reference center: EARTH

Epoch: Sept. 7, 2025, 11:22 p.m. UTC

TLE line 0: 0 COSMOS 1275 DEB

TLE line 1: 1 12964U 81053EK 25250.97413479 .00000059 00000-0 41688-4 0 9992

TLE line 2: 2 12964 82.9487 326.8677 0038132 207.8311 326.1111 13.80296343209881

Live tracking on map

Real-time ground track for satellite COSMOS 1275 DEB.

In-orbit conjunctions

A list of the most updated potential collisions computed for object COSMOS 1275 DEB.

Target Orbit TCA Probability of collision Miss distance Type
COSMOS 789 DEB LEO 2025-09-04 06:16:12 0.0004926413 119.0 (m) DEBRIS
THOR ABLESTAR DEB LEO 2025-04-05 11:09:34 0.0001565633 95.0 (m) DEBRIS
ELECTRON KICK STAGE R/B SSO 2024-11-15 14:51:47 0.0003474464 593.0 (m) ROCKET BODY

Associated space launch

Navigation satellite providing location information for the Tsiklon-B navigation system

COSMOS 1275 DEB was lifted into orbit during the mission ‘Kosmos-3M | Parus 27’, on board a Kosmos-3M space rocket.

The launch took place on June 4, 1981, 3:41 p.m. from 132/2.

For more information about the launch, click the button.

Launch to space Kosmos-3M | Parus 27
Kosmos-3M | Parus 27

Agency: N/A

Status: Launch Successful

Launch date: June 4, 1981, 3:41 p.m. UTC

Rocket: Kosmos-3M

Launch pad: 132/2

Location: Plesetsk Cosmodrome, Russian Federation

...

Latest news about this satellite

There are no fresh news available about this satellite. Check back as we update our databases every day.


Newsletter sign-up

Weekly statistics, charts and insights to help you stay on top of the space industry.